Location: Roanoke
(37.2710°N, 79.9420°W)
Time: 23:27:13
(UTC-05:00)

Altair - Visible Passes

Search period start: 21 November 2019 00:00
Search period end: 01 December 2019 00:00
Orbit: 1502 x 1682 km, 47.2° (Epoch: 20 November)

Date Brightness Start Highest point End Pass type
(mag) Time Alt. Az. Time Alt. Az. Time Alt. Az.
21 Nov 9.2 02:17:12 20° ENE 02:17:12 20° ENE 02:19:25 10° ENE visible
21 Nov 7.6 04:15:14 53° NNW 04:15:23 53° NNW 04:24:24 10° ENE visible
21 Nov 8.0 06:13:15 12° WNW 06:21:36 47° N 06:30:36 10° E visible
22 Nov 9.6 01:53:30 13° ENE 01:53:30 13° ENE 01:54:14 10° ENE visible
22 Nov 7.8 03:51:32 51° NNE 03:51:32 51° NNE 03:59:11 10° ENE visible
22 Nov 8.0 05:49:33 18° WNW 05:56:20 47° N 06:05:16 10° E visible
23 Nov 8.1 03:27:49 43° NNE 03:27:49 43° NNE 03:33:58 10° ENE visible
23 Nov 8.0 05:25:50 25° NW 05:31:03 46° N 05:39:56 10° ENE visible
24 Nov 8.6 03:04:05 33° NE 03:04:05 33° NE 03:08:46 10° ENE visible
24 Nov 7.9 05:02:07 32° NW 05:05:47 45° N 05:14:37 10° ENE visible
25 Nov 9.0 02:40:21 25° NE 02:40:21 25° NE 02:43:35 10° ENE visible
25 Nov 7.9 04:38:22 40° NNW 04:40:29 45° N 04:49:18 10° ENE visible
25 Nov 7.7 06:37:16 10° WNW 06:46:27 68° NNE 06:55:51 10° ESE visible
26 Nov 9.3 02:16:36 17° NE 02:16:36 17° NE 02:18:24 10° ENE visible
26 Nov 7.8 04:14:38 45° N 04:15:13 45° N 04:24:00 10° ENE visible
26 Nov 7.7 06:12:39 12° WNW 06:21:15 64° NNE 06:30:34 10° ESE visible
27 Nov 9.7 01:52:52 11° ENE 01:52:52 11° ENE 01:53:14 10° ENE visible
27 Nov 8.0 03:50:53 44° NNE 03:50:53 44° NNE 03:58:43 10° ENE visible
27 Nov 7.7 05:48:54 18° NW 05:56:01 61° NNE 06:05:17 10° ESE visible
28 Nov 8.3 03:27:10 38° NNE 03:27:10 38° NNE 03:33:26 10° ENE visible
28 Nov 7.7 05:25:11 25° NW 05:30:48 59° NNE 05:39:58 10° E visible
29 Nov 8.7 03:03:26 31° NE 03:03:26 31° NE 03:08:11 10° ENE visible
29 Nov 7.7 05:01:28 34° NW 05:05:34 56° NNE 05:14:41 10° E visible
30 Nov 9.1 02:39:44 23° NE 02:39:44 23° NE 02:42:55 10° ENE visible
30 Nov 7.8 04:37:45 43° NNW 04:40:19 54° NNE 04:49:22 10° E visible
30 Nov 7.6 06:36:15 10° WNW 06:45:24 72° SW 06:54:44 10° SE visible
